Notices

What's New in latest Release from April 7th, 2021:

- Updated Glossary, including Speed of Maximum Gust, and Total Hourly Precipitation

- Updated national and regional climate services offices contacts and prices information

- Addition of station inventory lists for 1981-2010, 1971-2000, and 1961-1990 Normals.

If you haven't already, please take our survey and provide feedback about our website: https://eccc.sondage-survey.ca/f/LanguageSelection.aspx?s=442ca660-fcf1-47c0-95a9-59707d6fd709

Hourly Data Report for October 26, 2020

CARBERRY CS
MANITOBA
Current Station Operator: ECCC - MSC

49°54'20.900" N
99°21'26.800" W
383.50 m
5010547
71170
WZE

Download Data

Hourly Data (October 2020)
Hourly Data Report for October 26, 2020
TIME
LST
Temp Definition
°C
Dew Point Definition
°C
Rel Hum Definition
%
Precip. Amount Definition
mm

Wind Dir Definition
10's deg

Wind Spd Definition
km/h
Visibility Definition
km
Stn Press Definition
kPa
Hmdx Definition


Wind Chill Definition


Weather Definition


00:00 -6.5 -9.8 77 0.0 25 14   98.02   -12 LegendNANA
01:00 -6.3 -9.4 79 0.0 26 20   98.02   -13 LegendNANA
02:00 -6.1 -9.0 80 0.0 26 13   97.98   -11 LegendNANA
03:00 -5.9 -8.9 79 0.0 26 16   97.94   -12 LegendNANA
04:00 -5.8 -9.5 75 0.0 23 12   97.90   -11 LegendNANA
05:00 -6.0 -9.9 74 0.0 26 15   97.89   -12 LegendNANA
06:00 -6.2 -10.4 72 0.0 25 11   97.87   -11 LegendNANA
07:00 -7.2 -10.1 80 0.0 22 10   97.81   -12 LegendNANA
08:00 -7.2 -10.0 80 0.0 22 9   97.79   -12 LegendNANA
09:00 -6.6 -11.2 70 0.0 23 19   97.80   -13 LegendNANA
10:00 -6.1 -15.0 49 0.0 22 25   97.73   -14 LegendNANA
11:00 -5.7 -14.6 49 0.0 22 26   97.63   -13 LegendNANA
12:00 -4.4 -13.6 49 0.0 22 28   97.55   -12 LegendNANA
13:00 -4.0 -12.9 50 0.0 22 27   97.40   -11 LegendNANA
14:00 -3.0 -12.5 48 0.0 21 22   97.28   -9 LegendNANA
15:00 -3.0 -12.8 47 0.0 22 24   97.19   -10 LegendNANA
16:00 -3.0 -12.3 49 0.0 21 26   97.09   -10 LegendNANA
17:00 -3.5 -12.2 51 0.0 20 21   97.06   -10 LegendNANA
18:00 -3.8 -11.1 57 0.0 20 15   97.05   -9 LegendNANA
19:00 -4.1 -11.0 58 0.0 23 11   97.04   -9 LegendNANA
20:00 -4.9 -10.9 62 0.0 23 15   97.00   -10 LegendNANA
21:00 -6.1 -11.4 66 0.0 24 15   96.94   -12 LegendNANA
22:00 -6.4 -11.1 69 0.0 25 16   96.94   -13 LegendNANA
23:00 -6.9 -11.0 73 0.0 24 16   96.88   -13 LegendNANA

Notes on Data Quality.

Legend

  • E = Estimated
  • M = Missing
  • NA = Not Available*
  • [empty] = Indicates an unobserved value
Date modified: